Weather History for KLKR - January, 2014

Change the Weather History Date:

Saturday, January 18, 2014

  Actual Average (KUZA) Record (KUZA)
Temperature  
Mean Temperature 34 °F -  
Max Temperature 41 °F 51 °F 74 °F (1974)
Min Temperature 26 °F 31 °F 14 °F (1976)
Degree Days  
Heating Degree Days 32    
Moisture  
Dew Point 13 °F    
Average Humidity 43    
Maximum Humidity 69    
Minimum Humidity 29    
Precipitation  
Precipitation 0.00 in - - ()
Sea Level Pressure  
Sea Level Pressure 30.03 in    
Wind  
Wind Speed 8 mph (West)    
Max Wind Speed 15 mph    
Max Gust Speed 21 mph    
Visibility 10 miles    
Events      
Averages and records for this station are not official NWS values.
T = Trace of Precipitation, MM = Missing Value Source: NWS Daily Summary

Daily Weather History Graph

Daily Weather History Graph

Search for Another Location

Airport or City:

Trip Planner

Search our weather history database for the weather conditions in past years. The results will help you decide how hot, cold, wet, or windy it might be!

Date:

Astronomy

Jan. 18, 2014 Rise Set
Actual Time 7:29 AM EST 5:38 PM EST
Civil Twilight 7:02 AM EST 6:05 PM EST
Nautical Twilight 6:31 AM EST 6:36 PM EST
Astronomical Twilight 6:01 AM EST 7:06 PM EST
Moon 8:11 PM EST (1/18) 8:35 AM EST (1/18)
Length of Visible Light 11h 03m
Length of Day
10h 09m
Waning Gibbous, 94% of the Moon is Illuminated
Jan 18
Waning Gibbous
Jan 24
Last Quarter
Jan 30
New
Feb 6
First Quarter
Feb 14
Full

Hourly Weather History & Observations

Time (EST) Temp. Windchill Dew Point Humidity Pressure Visibility Wind Dir Wind Speed Gust Speed Precip Events Conditions
12:15 AM 39.2 °F 32.5 °F 14.0 °F 36% 29.93 in 10.0 mi West 10.4 mph 18.4 mph N/A   Clear
12:35 AM 39.2 °F 30.8 °F 14.0 °F 36% 29.93 in 10.0 mi West 15.0 mph - N/A   Clear
12:55 AM 37.4 °F 30.3 °F 10.4 °F 33% 29.93 in 10.0 mi WSW 10.4 mph - N/A   Clear
1:15 AM 37.4 °F 30.8 °F 12.2 °F 36% 29.93 in 10.0 mi West 9.2 mph - N/A   Clear
1:35 AM 37.4 °F 30.8 °F 12.2 °F 36% 29.93 in 10.0 mi West 9.2 mph - N/A   Clear
1:55 AM 35.6 °F 29.2 °F 14.0 °F 41% 29.94 in 10.0 mi WSW 8.1 mph - N/A   Clear
2:15 AM 35.6 °F 30.7 °F 14.0 °F 41% 29.94 in 10.0 mi WSW 5.8 mph - N/A   Clear
2:35 AM 33.8 °F 27.0 °F 14.0 °F 44% 29.95 in 10.0 mi WSW 8.1 mph - N/A   Clear
2:55 AM 33.8 °F 27.7 °F 14.0 °F 44% 29.95 in 10.0 mi WSW 6.9 mph - N/A   Clear
3:15 AM 33.8 °F 25.8 °F 14.0 °F 44% 29.96 in 10.0 mi WSW 10.4 mph - N/A   Clear
3:35 AM 33.8 °F 25.8 °F 12.2 °F 41% 29.96 in 10.0 mi WSW 10.4 mph 18.4 mph N/A   Clear
3:55 AM 32.0 °F 21.6 °F 12.2 °F 44% 29.96 in 10.0 mi WSW 15.0 mph - N/A   Clear
4:15 AM 32.0 °F 22.5 °F 10.4 °F 41% 29.96 in 10.0 mi WSW 12.7 mph - N/A   Clear
4:35 AM 32.0 °F 23.0 °F 10.4 °F 41% 29.97 in 10.0 mi WSW 11.5 mph - N/A   Mostly Cloudy
4:55 AM 32.0 °F 22.5 °F 10.4 °F 41% 29.97 in 10.0 mi West 12.7 mph - N/A   Overcast
5:15 AM 32.0 °F 23.6 °F 12.2 °F 44% 29.98 in 10.0 mi West 10.4 mph - N/A   Overcast
5:35 AM 32.0 °F 23.6 °F 12.2 °F 44% 30.00 in 10.0 mi WNW 10.4 mph 17.3 mph N/A   Overcast
5:55 AM 32.0 °F 23.0 °F 12.2 °F 44% 30.01 in 10.0 mi West 11.5 mph 16.1 mph N/A   Mostly Cloudy
6:15 AM 30.2 °F 22.6 °F 10.4 °F 44% 30.01 in 10.0 mi West 8.1 mph - N/A   Partly Cloudy
6:35 AM 28.4 °F 21.2 °F 8.6 °F 43% 30.02 in 10.0 mi West 6.9 mph - N/A   Clear
6:55 AM 28.4 °F 20.4 °F 8.6 °F 43% 30.03 in 10.0 mi West 8.1 mph - N/A   Clear
7:15 AM 28.4 °F 23.3 °F 10.4 °F 47% 30.03 in 10.0 mi West 4.6 mph - N/A   Clear
7:35 AM 26.6 °F 21.2 °F 10.4 °F 51% 30.04 in 10.0 mi WSW 4.6 mph - N/A   Clear
7:55 AM 26.6 °F 20.0 °F 10.4 °F 51% 30.05 in 10.0 mi WSW 5.8 mph - N/A   Clear
8:15 AM 26.6 °F 20.0 °F 10.4 °F 51% 30.07 in 10.0 mi West 5.8 mph - N/A   Clear
8:35 AM 28.4 °F 21.2 °F 10.4 °F 47% 30.08 in 10.0 mi West 6.9 mph - N/A   Clear
8:55 AM 30.2 °F 21.9 °F 8.6 °F 40% 30.09 in 10.0 mi WNW 9.2 mph - N/A   Clear
9:15 AM 32.0 °F 25.6 °F 8.6 °F 38% 30.10 in 10.0 mi WNW 6.9 mph - N/A   Clear
9:35 AM 32.0 °F 24.8 °F 8.6 °F 38% 30.11 in 10.0 mi NW 8.1 mph - N/A   Clear
9:55 AM 32.0 °F 23.6 °F 8.6 °F 38% 30.11 in 10.0 mi WNW 10.4 mph 16.1 mph N/A   Clear
10:15 AM 32.0 °F 21.6 °F 8.6 °F 38% 30.12 in 10.0 mi West 15.0 mph 19.6 mph N/A   Clear
10:35 AM 33.8 °F 24.8 °F 8.6 °F 35% 30.13 in 10.0 mi West 12.7 mph 19.6 mph N/A   Clear
10:55 AM 33.8 °F 24.3 °F 10.4 °F 38% 30.12 in 10.0 mi West 13.8 mph 20.7 mph N/A   Clear
11:15 AM 35.6 °F 28.0 °F 8.6 °F 33% 30.12 in 10.0 mi WNW 10.4 mph 18.4 mph N/A   Clear
11:35 AM 35.6 °F 26.6 °F 8.6 °F 33% 30.12 in 10.0 mi West 13.8 mph - N/A   Clear
11:55 AM 37.4 °F 29.8 °F 10.4 °F 33% 30.11 in 10.0 mi WSW 11.5 mph 19.6 mph N/A   Clear
12:15 PM 37.4 °F 31.4 °F 10.4 °F 33% 30.09 in 10.0 mi WNW 8.1 mph 20.7 mph N/A   Clear
12:35 PM 37.4 °F 28.9 °F 10.4 °F 33% 30.08 in 10.0 mi WSW 13.8 mph 17.3 mph N/A   Clear
12:55 PM 37.4 °F 30.8 °F 10.4 °F 33% 30.08 in 10.0 mi WSW 9.2 mph 18.4 mph N/A   Clear
1:15 PM 37.4 °F 29.3 °F 10.4 °F 33% 30.06 in 10.0 mi WSW 12.7 mph 16.1 mph N/A   Clear
1:35 PM 39.2 °F 35.0 °F 10.4 °F 31% 30.05 in 10.0 mi West 5.8 mph 16.1 mph N/A   Clear
1:55 PM 39.2 °F 33.0 °F 10.4 °F 31% 30.05 in 10.0 mi West 9.2 mph - N/A   Clear
2:15 PM 41.0 °F 35.8 °F 12.2 °F 31% 30.04 in 10.0 mi WSW 8.1 mph - N/A   Clear
2:35 PM 41.0 °F 35.2 °F 12.2 °F 31% 30.04 in 10.0 mi West 9.2 mph - N/A   Clear
2:55 PM 41.0 °F 33.9 °F 10.4 °F 29% 30.04 in 10.0 mi WSW 12.7 mph 17.3 mph N/A   Clear
3:15 PM 41.0 °F 34.7 °F 10.4 °F 29% 30.04 in 10.0 mi WSW 10.4 mph 17.3 mph N/A   Clear
3:35 PM 41.0 °F 34.7 °F 12.2 °F 31% 30.04 in 10.0 mi West 10.4 mph - N/A   Clear
3:55 PM 41.0 °F 34.7 °F 12.2 °F 31% 30.03 in 10.0 mi West 10.4 mph - N/A   Clear
4:15 PM 41.0 °F 35.2 °F 14.0 °F 33% 30.03 in 10.0 mi WSW 9.2 mph - N/A   Clear
4:35 PM 41.0 °F 35.2 °F 12.2 °F 31% 30.05 in 10.0 mi WSW 9.2 mph - N/A   Clear
4:55 PM 41.0 °F 35.8 °F 14.0 °F 33% 30.05 in 10.0 mi SW 8.1 mph - N/A   Clear
5:15 PM 39.2 °F 37.0 °F 14.0 °F 36% 30.05 in 10.0 mi SW 3.5 mph - N/A   Clear
5:35 PM 39.2 °F - 14.0 °F 36% 30.04 in 10.0 mi Calm Calm - N/A   Clear
5:55 PM 35.6 °F - 15.8 °F 44% 30.04 in 10.0 mi Calm Calm - N/A   Clear
6:15 PM 35.6 °F - 14.0 °F 41% 30.05 in 10.0 mi Calm Calm - N/A   Clear
6:35 PM 32.0 °F - 15.8 °F 51% 30.05 in 10.0 mi Calm Calm - N/A   Clear
6:55 PM 32.0 °F - 14.0 °F 48% 30.05 in 10.0 mi Calm Calm - N/A   Clear
7:15 PM 32.0 °F - 15.8 °F 51% 30.05 in 10.0 mi Calm Calm - N/A   Clear
7:35 PM 32.0 °F - 15.8 °F 51% 30.05 in 10.0 mi Calm Calm - N/A   Clear
7:55 PM 30.2 °F - 15.8 °F 55% 30.04 in 10.0 mi Calm Calm - N/A   Clear
8:15 PM 30.2 °F - 15.8 °F 55% 30.05 in 10.0 mi Calm Calm - N/A   Clear
8:35 PM 30.2 °F - 17.6 °F 60% 30.05 in 10.0 mi Calm Calm - N/A   Clear
8:55 PM 28.4 °F - 17.6 °F 64% 30.04 in 10.0 mi Calm Calm - N/A   Clear
9:15 PM 28.4 °F - 19.4 °F 69% 30.03 in 10.0 mi Calm Calm - N/A   Clear
9:35 PM 28.4 °F - 17.6 °F 64% 30.04 in 10.0 mi Calm Calm - N/A   Clear
9:55 PM 26.6 °F - 17.6 °F 69% 30.04 in 10.0 mi Calm Calm - N/A   Clear
10:15 PM 26.6 °F - 17.6 °F 69% 30.03 in 10.0 mi Calm Calm - N/A   Clear
10:35 PM 28.4 °F - 17.6 °F 64% 30.04 in 10.0 mi Calm Calm - N/A   Clear
10:55 PM 28.4 °F - 15.8 °F 59% 30.06 in 10.0 mi Calm Calm - N/A   Clear
11:15 PM 28.4 °F - 17.6 °F 64% 30.05 in 10.0 mi Calm Calm - N/A   Clear
11:35 PM 28.4 °F - 15.8 °F 59% 30.04 in 10.0 mi Calm Calm - N/A   Clear
11:55 PM 26.6 °F - 17.6 °F 69% 30.03 in 10.0 mi Calm Calm - N/A   Clear